Location: Escondido Hill
(38.9119°N, 104.7815°W)
Time: 11:26:51
(UTC-06:00)

OTV 5 (USA 277) - Pass Details

Date: 25 April 2019
Orbit: 310 x 325 km, 54.5° (Epoch: 08 May)

Event Time Altitude Azimuth Distance (km) Brightness Sun altitude
Rises 21:23:33 0° 267° (W) 2,024 ? -17.8°
Reaches altitude 10° 21:26:09 10° 295° (WNW) 1,198 ? -18.2°
Maximum altitude 21:27:37 14° 329° (NNW) 1,015 ? -18.5°
Drops below altitude 10° 21:29:06 10° 3° (N) 1,199 ? -18.7°
Sets 21:31:43 0° 32° (NNE) 2,029 ? -19.1°
